Regional Weather Roundup
Issued by NWS

Home | Current Version | Previous Version | Text Only | Print | Product List | Glossary On
Versions: 1 2 3 4 5 6 7 8 9 10 11 12 13 14 15 16 17 18 19 20 21 22 23 24 25 26 27 28 29 30 31 32 33 34 35 36 37 38 39 40 41 42 43 44 45 46 47 48 49 50
377
ASUS44 KJAN 171710
RWRMS

MISSISSIPPI HOURLY WEATHER ROUNDUP
NATIONAL WEATHER SERVICE JACKSON MS
1100 AM CST FRI NOV 17 2017

NOTE: "FAIR: INDICATES FEW OR NO CLOUDS BELOW 12,000 FEET WITH NO
SIGNIFICANT WEATHER AND/OR OBSTRUCTIONS TO VISIBILITY.

MSZ001>002-007>008-010>013-018>021-025>028-034>036-171800-
NORTHWEST MISSISSIPPI

CITY           SKY/WX    TMP DP  RH WIND       PRES   REMARKS
BATESVILLE     FAIR      66  49  53 SE8       30.07F
CLARKSDALE       N/A     68  59  73 S12       30.06S
CLEVELAND      FAIR      68  60  77 S15       30.05F
GREENWOOD      SUNNY     71  57  61 S9        30.08F
GREENVILLE     SUNNY     69  58  67 S13       30.05F
OLIVE BRANCH   PTSUNNY  N/A N/A N/A S7        30.03F
OXFORD         FAIR      64  46  52 S8G14     30.09F
TUNICA           N/A    N/A N/A N/A S13       30.06F
WINONA         PTSUNNY   66  56  71 S6        30.10F
$$

MSZ003>006-009-014>017-022>024-029>033-037>039-171800-
NORTHEAST MISSISSIPPI

CITY           SKY/WX    TMP DP  RH WIND       PRES   REMARKS
ABERDEEN       FAIR      66  61  82 SE8       30.15S
COLUMBUS AFB   SUNNY     65  52  62 SE5       30.12F
CORINTH        PTSUNNY   63  39  42 S9        30.11F
GOLDN TRIANGLE SUNNY     66  48  52 S12       30.13F
STARKVILLE     FAIR      64  50  59 S8        30.13F
TUPELO         SUNNY     62  42  47 SE8       30.12F
$$

MSZ040-058-171800-
CENTRAL MISSISSIPPI

CITY           SKY/WX    TMP DP  RH WIND       PRES   REMARKS
JACKSON INTL   MOSUNNY   73  59  61 SW7       30.10F
JACKSON HAWKNS MOSUNNY   70  60  70 SW10      30.10F
MADISON        FAIR      70  59  68 S8        30.09F
MERIDIAN KEY   SUNNY     70  57  63 S9        30.12F
MERIDIAN NAS   SUNNY     68  52  56 VRB5      30.13F
RAYMOND        FAIR      72  59  64 SW9       30.09F
VICKSBURG VKS  PTSUNNY   73  59  60 S12       30.10F
$$

MSZ059>079-171800-
SOUTH MISSISSIPPI

CITY           SKY/WX    TMP DP  RH WIND       PRES   REMARKS
COLUMBIA       FAIR      70  61  73 S7        30.16F
HATTIESBURG    SUNNY     71  58  63 S7        30.13F
LAUREL         FAIR      68  56  64 S5        30.14F
MCCOMB         SUNNY     72  58  61 S13       30.11F
NATCHEZ        MOSUNNY   74  59  59 S16       30.09F
PINE BELT      SUNNY     69  58  67 SE7       30.13F
$$

MSZ080>082-171800-
COASTAL MISSISSIPPI

CITY           SKY/WX    TMP DP  RH WIND       PRES   REMARKS
BAY ST LOUIS   SUNNY     73  61  64 S3        30.14F
BILOXI         SUNNY     71  57  60 SE5       30.13F
PASCAGOULA     SUNNY     73  56  54 CALM      30.14F
GULFPORT       SUNNY     71  59  65 SE6       30.13F
$$

LAZ007>009-015>016-023>026-171800-
NORTHEAST LOUISIANA

CITY           SKY/WX    TMP DP  RH WIND       PRES   REMARKS
BASTROP        FAIR      72  60  66 S9G16     30.05F
TALLULAH/VBURG CLOUDY    71  60  68 S9        30.09F
VIDALIA          N/A    N/A N/A N/A MISG      30.08F
$$




USA.gov is the U.S. government's official web portal to all federal, state and local government web resources and services.